Location: Gensac
(43.2177°N, 1.1313°E)
Time: 13:50:24
(UTC+00:00)

ARIANE 5 R/B - Pass Details

Date: 08 December 2025
Orbit: 747 x 792 km, 98.8° (Epoch: 19 January)

Event Time Altitude Azimuth Distance (km) Brightness Sun altitude
Rises 06:07:28 0° 19° (NNE) 3,291 5.8 -11.9°
Reaches altitude 10° 06:09:53 10° 24° (NNE) 2,361 5.1 -11.5°
Maximum altitude 06:14:57 50° 100° (E) 1,000 3.6 -10.6°
Drops below altitude 10° 06:19:59 10° 176° (S) 2,350 5.4 -9.8°
Sets 06:22:22 0° 181° (S) 3,273 6.1 -9.4°
